^^
Datos históricos de la estación: Murcia-Puente Tocinos
Diario Informe para Julio 12, 2019 Unidades:  Métrico    Inglés   Ambas
Diario Semanal Mensual Anual Configurable
  Máximo: Mínimo: Media:
Temperatura: 36.8 °C 23.7 °C 29.2 °C
Punto de rocio: 18.7 °C 9.7 °C 14.4 °C
Humedad: 71% 24% 43%
Velocidad viento: 19.8km/h 0.0km/h 8.6km/h
Racha viento: 37.0km/h - -
Viento- - SE
Presión: 1014.2 hPa 1011.6 hPa -
Precipitación: 0.0 mm    
Historical Graphs
 
 
Tabla de datos para Julio 12, 2019
Hora Temperatura Punto de rocio Presión Viento Velocidad viento Racha viento Humedad Intensidad lluvia(por hora) Nubes
00:04 25.5 °C 16.9 °C 1013.6 hPa NNE 9.5 km/h 13.0 km/h 59% 0.0 mm CLR
00:09 25.4 °C 17.1 °C 1013.6 hPa NE 9.5 km/h 13.0 km/h 60% 0.0 mm CLR
00:14 25.4 °C 17.1 °C 1013.6 hPa NE 9.5 km/h 9.3 km/h 60% 0.0 mm CLR
00:19 25.4 °C 17.1 °C 1013.6 hPa NE 7.6 km/h 10.0 km/h 60% 0.0 mm CLR
00:24 25.3 °C 17.2 °C 1013.6 hPa NE 7.6 km/h 11.1 km/h 61% 0.0 mm CLR
00:29 25.3 °C 17.5 °C 1013.6 hPa NE 7.6 km/h 11.1 km/h 62% 0.0 mm CLR
00:34 25.3 °C 17.7 °C 1013.7 hPa NNE 7.6 km/h 11.1 km/h 63% 0.0 mm CLR
00:39 25.2 °C 17.9 °C 1013.7 hPa NNE 6.9 km/h 11.1 km/h 64% 0.0 mm CLR
00:44 25.1 °C 18.1 °C 1013.7 hPa NNE 6.9 km/h 11.1 km/h 65% 0.0 mm CLR
00:49 25.0 °C 17.9 °C 1013.7 hPa NE 7.6 km/h 9.3 km/h 65% 0.0 mm CLR
00:54 25.1 °C 18.3 °C 1013.7 hPa NE 7.6 km/h 10.3 km/h 66% 0.0 mm CLR
00:59 25.1 °C 18.3 °C 1013.7 hPa NE 6.9 km/h 7.4 km/h 66% 0.0 mm CLR
01:04 25.1 °C 18.3 °C 1013.7 hPa NE 6.9 km/h 5.6 km/h 66% 0.0 mm CLR
01:09 25.1 °C 18.1 °C 1013.7 hPa NNE 3.9 km/h 5.6 km/h 65% 0.0 mm CLR
01:14 25.0 °C 18.2 °C 1013.7 hPa NE 3.9 km/h 5.6 km/h 66% 0.0 mm CLR
01:19 24.9 °C 18.1 °C 1013.8 hPa NE 3.2 km/h 3.7 km/h 66% 0.0 mm CLR
01:24 24.8 °C 18.0 °C 1013.8 hPa NE 3.2 km/h 3.2 km/h 66% 0.0 mm CLR
01:29 24.8 °C 18.0 °C 1013.8 hPa NE 2.9 km/h 5.6 km/h 66% 0.0 mm CLR
01:34 24.7 °C 18.2 °C 1013.6 hPa NNE 2.9 km/h 7.4 km/h 67% 0.0 mm CLR
01:39 24.6 °C 18.1 °C 1013.6 hPa NNE 5.0 km/h 8.4 km/h 67% 0.0 mm CLR
01:44 24.6 °C 18.1 °C 1013.6 hPa NNE 5.0 km/h 7.4 km/h 67% 0.0 mm CLR
01:49 24.4 °C 17.9 °C 1013.5 hPa NNE 3.9 km/h 5.6 km/h 67% 0.0 mm CLR
01:54 24.4 °C 18.1 °C 1013.5 hPa NNE 3.9 km/h 7.4 km/h 68% 0.0 mm CLR
01:59 24.4 °C 18.3 °C 1013.5 hPa NNE 3.9 km/h 5.6 km/h 69% 0.0 mm CLR
02:04 24.4 °C 18.3 °C 1013.5 hPa NNE 3.9 km/h 5.8 km/h 69% 0.0 mm CLR
02:09 24.4 °C 18.3 °C 1013.5 hPa NNE 3.2 km/h 3.7 km/h 69% 0.0 mm CLR
02:14 24.4 °C 18.3 °C 1013.5 hPa NNE 3.2 km/h 3.7 km/h 69% 0.0 mm CLR
02:19 24.4 °C 18.3 °C 1013.6 hPa NE 2.3 km/h 5.6 km/h 69% 0.0 mm CLR
02:24 24.4 °C 18.3 °C 1013.6 hPa NE 2.3 km/h 5.6 km/h 69% 0.0 mm CLR
02:29 24.4 °C 18.3 °C 1013.6 hPa NE 3.2 km/h 3.7 km/h 69% 0.0 mm CLR
02:34 24.4 °C 18.3 °C 1013.4 hPa ESE 3.2 km/h 3.9 km/h 69% 0.0 mm CLR
02:39 24.5 °C 18.4 °C 1013.4 hPa ESE 3.2 km/h 5.6 km/h 69% 0.0 mm CLR
02:44 24.6 °C 18.3 °C 1013.4 hPa ESE 3.2 km/h 3.9 km/h 68% 0.0 mm CLR
02:49 24.5 °C 18.2 °C 1013.2 hPa ESE 2.9 km/h 4.7 km/h 68% 0.0 mm CLR
02:54 24.4 °C 18.1 °C 1013.2 hPa ESE 2.9 km/h   68% 0.0 mm CLR
02:59 24.4 °C 18.3 °C 1013.2 hPa NW 2.3 km/h 5.6 km/h 69% 0.0 mm CLR
03:04 24.3 °C 18.2 °C 1013.5 hPa WNW 2.3 km/h 4.7 km/h 69% 0.0 mm CLR
03:09 24.3 °C 18.5 °C 1013.5 hPa WNW 3.2 km/h   70% 0.0 mm CLR
03:14 24.3 °C 18.5 °C 1013.5 hPa West 3.2 km/h 3.7 km/h 70% 0.0 mm CLR
03:19 24.2 °C 18.4 °C 1013.3 hPa Calm   3.7 km/h 70% 0.0 mm CLR
03:24 24.2 °C 18.4 °C 1013.3 hPa Calm     70% 0.0 mm CLR
03:29 24.3 °C 18.7 °C 1013.3 hPa Calm     71% 0.0 mm CLR
03:34 24.2 °C 18.2 °C 1013.2 hPa Calm   3.9 km/h 69% 0.0 mm CLR
03:39 24.2 °C 17.9 °C 1013.2 hPa ESE 2.9 km/h 7.4 km/h 68% 0.0 mm CLR
03:44 24.1 °C 17.6 °C 1013.2 hPa SSE 2.9 km/h 7.4 km/h 67% 0.0 mm CLR
03:49 24.0 °C 17.3 °C 1013.0 hPa SSE 4.7 km/h 8.7 km/h 66% 0.0 mm CLR
03:54 23.9 °C 17.4 °C 1013.0 hPa SSE 4.7 km/h 7.4 km/h 67% 0.0 mm CLR
03:59 23.9 °C 16.9 °C 1013.0 hPa SSE 5.0 km/h 5.6 km/h 65% 0.0 mm CLR
04:04 24.0 °C 16.3 °C 1012.8 hPa SSE 5.0 km/h 7.4 km/h 62% 0.0 mm CLR
04:09 24.1 °C 16.1 °C 1012.8 hPa SSW 4.7 km/h 5.6 km/h 61% 0.0 mm CLR
04:14 24.1 °C 16.1 °C 1012.8 hPa WSW 4.7 km/h 5.6 km/h 61% 0.0 mm CLR
04:19 24.2 °C 16.4 °C 1013.0 hPa West 3.2 km/h 9.3 km/h 62% 0.0 mm CLR
04:24 24.3 °C 16.8 °C 1013.0 hPa West 3.2 km/h 7.4 km/h 63% 0.0 mm CLR
04:29 24.2 °C 16.2 °C 1013.0 hPa West 4.7 km/h 7.4 km/h 61% 0.0 mm CLR
04:34 24.2 °C 15.7 °C 1012.9 hPa WSW 4.7 km/h 5.6 km/h 59% 0.0 mm CLR
04:39 24.2 °C 15.7 °C 1012.9 hPa SW 4.7 km/h 7.4 km/h 59% 0.0 mm CLR
04:44 24.2 °C 15.7 °C 1012.9 hPa SW 4.7 km/h 5.6 km/h 59% 0.0 mm CLR
04:49 24.3 °C 15.8 °C 1012.8 hPa SW 4.7 km/h 3.7 km/h 59% 0.0 mm CLR
04:54 24.3 °C 15.8 °C 1012.8 hPa WSW 4.7 km/h 7.4 km/h 59% 0.0 mm CLR
04:59 24.3 °C 15.5 °C 1012.8 hPa SE 3.2 km/h 8.4 km/h 58% 0.0 mm CLR
05:04 24.3 °C 15.8 °C 1012.9 hPa South 3.2 km/h 5.6 km/h 59% 0.0 mm CLR
05:09 24.2 °C 15.7 °C 1012.9 hPa SW 4.7 km/h 9.3 km/h 59% 0.0 mm CLR
05:14 24.2 °C 15.9 °C 1012.9 hPa WSW 4.7 km/h 7.4 km/h 60% 0.0 mm CLR
05:19 24.2 °C 15.9 °C 1012.9 hPa SW 5.0 km/h 9.3 km/h 60% 0.0 mm CLR
05:24 24.2 °C 15.9 °C 1012.9 hPa WSW 5.0 km/h 8.7 km/h 60% 0.0 mm CLR
05:29 24.1 °C 15.8 °C 1012.9 hPa SW 5.8 km/h 9.5 km/h 60% 0.0 mm CLR
05:34 24.1 °C 15.6 °C 1013.1 hPa SSW 5.8 km/h 9.5 km/h 59% 0.0 mm CLR
05:39 23.9 °C 15.1 °C 1013.1 hPa SSW 8.4 km/h 13.0 km/h 58% 0.0 mm CLR
05:44 23.9 °C 15.4 °C 1013.1 hPa SSW 8.4 km/h 9.3 km/h 59% 0.0 mm CLR
05:49 23.8 °C 15.3 °C 1013.1 hPa SSW 6.9 km/h 11.1 km/h 59% 0.0 mm CLR
05:54 23.8 °C 15.3 °C 1013.1 hPa South 6.9 km/h 13.0 km/h 59% 0.0 mm CLR
05:59 23.8 °C 15.3 °C 1013.1 hPa WSW 8.4 km/h 11.1 km/h 59% 0.0 mm CLR
06:04 23.8 °C 15.3 °C 1013.3 hPa WSW 8.4 km/h 9.3 km/h 59% 0.0 mm CLR
06:09 23.8 °C 15.1 °C 1013.3 hPa SW 6.4 km/h 7.4 km/h 58% 0.0 mm CLR
06:14 23.7 °C 14.9 °C 1013.3 hPa WSW 6.4 km/h 7.6 km/h 58% 0.0 mm CLR
06:19 23.7 °C 14.9 °C 1013.2 hPa WSW 5.0 km/h 7.4 km/h 58% 0.0 mm CLR
06:24 23.7 °C 14.9 °C 1013.2 hPa SW 5.0 km/h 7.4 km/h 58% 0.0 mm CLR
06:29 23.7 °C 14.9 °C 1013.2 hPa SW 5.8 km/h 9.3 km/h 58% 0.0 mm CLR
06:34 23.7 °C 14.9 °C 1013.3 hPa SW 5.8 km/h 7.4 km/h 58% 0.0 mm CLR
06:39 23.7 °C 14.9 °C 1013.3 hPa SSW 6.4 km/h 7.6 km/h 58% 0.0 mm CLR
06:44 23.8 °C 14.8 °C 1013.3 hPa WSW 6.4 km/h 9.3 km/h 57% 0.0 mm CLR
06:49 23.8 °C 14.8 °C 1013.3 hPa WSW 5.8 km/h 7.4 km/h 57% 0.0 mm CLR
06:54 23.8 °C 14.8 °C 1013.3 hPa SW 5.8 km/h 7.6 km/h 57% 0.0 mm CLR
06:59 23.8 °C 14.8 °C 1013.3 hPa WSW 6.4 km/h 9.5 km/h 57% 0.0 mm CLR
07:04 23.8 °C 14.5 °C 1013.3 hPa SW 6.4 km/h 9.3 km/h 56% 0.0 mm CLR
07:09 23.8 °C 14.5 °C 1013.3 hPa SW 6.4 km/h 11.1 km/h 56% 0.0 mm CLR
07:14 23.9 °C 14.6 °C 1013.3 hPa SSW 6.4 km/h 7.4 km/h 56% 0.0 mm CLR
07:19 23.9 °C 14.6 °C 1013.3 hPa SW 5.8 km/h 8.4 km/h 56% 0.0 mm CLR
07:24 23.9 °C 14.6 °C 1013.3 hPa WSW 5.8 km/h 7.4 km/h 56% 0.0 mm CLR
07:29 23.9 °C 14.6 °C 1013.3 hPa SW 5.8 km/h 7.4 km/h 56% 0.0 mm CLR
07:34 24.0 °C 14.7 °C 1013.4 hPa SW 5.8 km/h 5.6 km/h 56% 0.0 mm CLR
07:39 24.1 °C 14.8 °C 1013.4 hPa WSW 4.7 km/h 7.4 km/h 56% 0.0 mm CLR
07:44 24.1 °C 14.8 °C 1013.4 hPa WSW 4.7 km/h 9.3 km/h 56% 0.0 mm CLR
07:49 24.2 °C 14.6 °C 1013.6 hPa West 4.7 km/h 7.4 km/h 55% 0.0 mm CLR
07:54 24.2 °C 14.6 °C 1013.6 hPa WSW 4.7 km/h 7.4 km/h 55% 0.0 mm CLR
07:59 24.2 °C 14.6 °C 1013.6 hPa SW 4.7 km/h 5.8 km/h 55% 0.0 mm CLR
08:04 24.3 °C 14.7 °C 1013.8 hPa West 4.7 km/h 6.4 km/h 55% 0.0 mm CLR
08:09 24.3 °C 14.7 °C 1013.8 hPa WNW 4.7 km/h 7.4 km/h 55% 0.0 mm CLR
08:14 24.3 °C 14.7 °C 1013.8 hPa West 4.7 km/h 7.4 km/h 55% 0.0 mm CLR
08:19 24.2 °C 14.6 °C 1013.9 hPa West 5.0 km/h 7.4 km/h 55% 0.0 mm CLR
08:24 24.2 °C 14.6 °C 1013.9 hPa WNW 5.0 km/h 7.4 km/h 55% 0.0 mm CLR
08:29 24.3 °C 14.7 °C 1013.9 hPa WNW 4.7 km/h 7.4 km/h 55% 0.0 mm CLR
08:34 24.3 °C 14.7 °C 1013.9 hPa WNW 4.7 km/h 7.4 km/h 55% 0.0 mm CLR
08:39 24.4 °C 14.8 °C 1013.9 hPa NW 5.0 km/h 7.4 km/h 55% 0.0 mm CLR
08:44 24.5 °C 14.9 °C 1013.9 hPa NW 5.0 km/h 3.7 km/h 55% 0.0 mm CLR
08:49 24.8 °C 15.2 °C 1013.8 hPa West 3.2 km/h 5.6 km/h 55% 0.0 mm CLR
08:54 24.9 °C 15.2 °C 1013.8 hPa NW 3.2 km/h 5.8 km/h 55% 0.0 mm CLR
08:59 25.2 °C 15.2 °C 1013.8 hPa NW 2.9 km/h 3.7 km/h 54% 0.0 mm CLR
09:04 25.3 °C 15.3 °C 1013.9 hPa West 2.9 km/h 5.6 km/h 54% 0.0 mm CLR
09:09 25.5 °C 15.2 °C 1013.9 hPa WSW 2.9 km/h 5.8 km/h 53% 0.0 mm CLR
09:14 25.7 °C 15.4 °C 1013.9 hPa SSW 2.9 km/h 7.4 km/h 53% 0.0 mm CLR
09:19 25.8 °C 15.2 °C 1014.0 hPa SW 3.9 km/h 7.4 km/h 52% 0.0 mm CLR
09:24 25.8 °C 14.6 °C 1014.0 hPa SW 3.9 km/h 5.6 km/h 50% 0.0 mm CLR
09:29 26.1 °C 14.9 °C 1014.0 hPa WSW 3.9 km/h 5.6 km/h 50% 0.0 mm CLR
09:34 26.3 °C 14.7 °C 1014.1 hPa WSW 3.9 km/h 7.4 km/h 49% 0.0 mm CLR
09:39 26.6 °C 15.0 °C 1014.1 hPa WSW 3.9 km/h 7.4 km/h 49% 0.0 mm CLR
09:44 26.8 °C 15.2 °C 1014.1 hPa SSW 3.9 km/h 5.8 km/h 49% 0.0 mm CLR
09:49 27.0 °C 15.4 °C 1014.1 hPa SSE 5.0 km/h 11.1 km/h 49% 0.0 mm CLR
09:54 27.1 °C 15.4 °C 1014.1 hPa SSW 5.0 km/h 9.3 km/h 49% 0.0 mm CLR
09:59 27.2 °C 15.2 °C 1014.1 hPa South 6.4 km/h 11.1 km/h 48% 0.0 mm CLR
10:04 27.3 °C 15.0 °C 1014.0 hPa South 6.4 km/h 9.3 km/h 47% 0.0 mm CLR
10:09 27.4 °C 14.8 °C 1014.0 hPa WSW 6.9 km/h 9.5 km/h 46% 0.0 mm CLR
10:14 27.7 °C 14.7 °C 1014.0 hPa West 6.9 km/h 7.6 km/h 45% 0.0 mm CLR
10:19 27.9 °C 14.5 °C 1014.0 hPa West 5.0 km/h 9.5 km/h 44% 0.0 mm CLR
10:24 28.2 °C 14.4 °C 1014.0 hPa West 5.0 km/h 8.4 km/h 43% 0.0 mm CLR
10:29 28.4 °C 14.6 °C 1014.0 hPa WSW 5.8 km/h 7.6 km/h 43% 0.0 mm CLR
10:34 28.5 °C 14.3 °C 1014.2 hPa WSW 5.8 km/h 9.3 km/h 42% 0.0 mm CLR
10:39 28.7 °C 14.5 °C 1014.2 hPa SSW 5.0 km/h 9.3 km/h 42% 0.0 mm CLR
10:44 28.9 °C 14.3 °C 1014.2 hPa SSW 5.0 km/h 9.3 km/h 41% 0.0 mm CLR
10:49 28.9 °C 14.3 °C 1014.1 hPa SW 5.8 km/h 7.4 km/h 41% 0.0 mm CLR
10:54 29.2 °C 14.6 °C 1014.1 hPa WNW 5.8 km/h 7.4 km/h 41% 0.0 mm CLR
10:59 29.4 °C 14.4 °C 1014.1 hPa WSW 3.9 km/h 7.4 km/h 40% 0.0 mm CLR
11:04 29.6 °C 14.6 °C 1014.1 hPa West 3.9 km/h 5.6 km/h 40% 0.0 mm CLR
11:09 29.9 °C 14.8 °C 1014.1 hPa West 2.9 km/h   40% 0.0 mm CLR
11:14 30.4 °C 14.5 °C 1014.1 hPa NW 2.9 km/h 6.4 km/h 38% 0.0 mm CLR
11:19 30.6 °C 14.3 °C 1014.0 hPa NNW 3.2 km/h 5.6 km/h 37% 0.0 mm CLR
11:24 30.7 °C 14.3 °C 1014.0 hPa NNW 3.2 km/h 5.6 km/h 37% 0.0 mm CLR
11:29 31.0 °C 13.7 °C 1014.0 hPa WNW 3.2 km/h 5.8 km/h 35% 0.0 mm CLR
11:34 31.2 °C 13.9 °C 1014.0 hPa NW 3.2 km/h 7.4 km/h 35% 0.0 mm CLR
11:39 31.6 °C 13.8 °C 1014.0 hPa WNW 3.9 km/h 9.5 km/h 34% 0.0 mm CLR
11:44 31.7 °C 13.9 °C 1014.0 hPa WNW 3.9 km/h 7.4 km/h 34% 0.0 mm CLR
11:49 31.9 °C 14.1 °C 1013.8 hPa East 3.9 km/h 9.3 km/h 34% 0.0 mm CLR
11:54 31.9 °C 14.1 °C 1013.8 hPa East 3.9 km/h 3.7 km/h 34% 0.0 mm CLR
11:59 32.3 °C 14.0 °C 1013.8 hPa NE 3.9 km/h 9.5 km/h 33% 0.0 mm CLR
12:04 32.4 °C 13.6 °C 1013.7 hPa NE 3.9 km/h 8.4 km/h 32% 0.0 mm CLR
12:09 32.4 °C 13.6 °C 1013.7 hPa North 6.4 km/h 9.3 km/h 32% 0.0 mm CLR
12:14 32.6 °C 13.3 °C 1013.7 hPa NE 6.4 km/h 7.4 km/h 31% 0.0 mm CLR
12:19 32.8 °C 13.4 °C 1013.6 hPa NW 6.4 km/h 11.1 km/h 31% 0.0 mm CLR
12:24 32.9 °C 13.1 °C 1013.6 hPa NNE 6.4 km/h 16.7 km/h 30% 0.0 mm CLR
12:29 32.9 °C 13.6 °C 1013.6 hPa North 8.7 km/h 5.6 km/h 31% 0.0 mm CLR
12:34 33.2 °C 13.3 °C 1013.5 hPa NNE 8.7 km/h 11.1 km/h 30% 0.0 mm CLR
12:39 33.2 °C 13.3 °C 1013.5 hPa NE 6.9 km/h 15.6 km/h 30% 0.0 mm CLR
12:44 33.4 °C 13.4 °C 1013.5 hPa NNE 6.9 km/h 8.7 km/h 30% 0.0 mm CLR
12:49 33.6 °C 13.6 °C 1013.4 hPa NE 7.6 km/h 5.6 km/h 30% 0.0 mm CLR
12:54 33.9 °C 13.9 °C 1013.4 hPa NE 7.6 km/h 16.7 km/h 30% 0.0 mm CLR
12:59 34.1 °C 13.6 °C 1013.4 hPa NNE 6.4 km/h 18.5 km/h 29% 0.0 mm CLR
13:04 34.2 °C 13.6 °C 1013.3 hPa NNE 6.4 km/h 9.3 km/h 29% 0.0 mm CLR
13:09 34.4 °C 13.3 °C 1013.3 hPa NE 7.6 km/h 16.7 km/h 28% 0.0 mm CLR
13:14 34.4 °C 13.3 °C 1013.3 hPa North 7.6 km/h 20.4 km/h 28% 0.0 mm CLR
13:19 34.6 °C 12.9 °C 1013.1 hPa ENE 10.3 km/h 11.1 km/h 27% 0.0 mm CLR
13:24 34.6 °C 12.3 °C 1013.1 hPa NNE 10.3 km/h 18.5 km/h 26% 0.0 mm CLR
13:29 34.8 °C 11.9 °C 1013.1 hPa NE 11.1 km/h 16.7 km/h 25% 0.0 mm CLR
13:34 34.8 °C 11.9 °C 1013.0 hPa NNE 11.1 km/h 16.1 km/h 25% 0.0 mm CLR
13:39 35.0 °C 12.1 °C 1013.0 hPa NNE 11.1 km/h 16.7 km/h 25% 0.0 mm CLR
13:44 35.2 °C 12.8 °C 1013.0 hPa NNE 11.1 km/h 20.4 km/h 26% 0.0 mm CLR
13:49 35.2 °C 13.4 °C 1012.8 hPa East 11.1 km/h 16.7 km/h 27% 0.0 mm CLR
13:54 35.5 °C 13.1 °C 1012.8 hPa NNE 11.1 km/h 24.1 km/h 26% 0.0 mm CLR
13:59 35.4 °C 13.6 °C 1012.8 hPa NE 10.3 km/h 22.2 km/h 27% 0.0 mm CLR
14:04 35.7 °C 13.8 °C 1012.6 hPa NE 10.3 km/h 14.8 km/h 27% 0.0 mm CLR
14:09 36.1 °C 13.6 °C 1012.6 hPa North 9.5 km/h 14.8 km/h 26% 0.0 mm CLR
14:14 36.1 °C 13.6 °C 1012.6 hPa NNE 9.5 km/h 20.4 km/h 26% 0.0 mm CLR
14:19 36.1 °C 14.2 °C 1012.4 hPa NE 11.1 km/h 14.0 km/h 27% 0.0 mm CLR
14:24 36.3 °C 13.7 °C 1012.4 hPa NNE 11.1 km/h 24.1 km/h 26% 0.0 mm CLR
14:29 36.4 °C 13.8 °C 1012.4 hPa NE 11.1 km/h 22.2 km/h 26% 0.0 mm CLR
14:34 36.3 °C 13.7 °C 1012.3 hPa ENE 11.1 km/h 20.4 km/h 26% 0.0 mm CLR
14:39 36.5 °C 13.3 °C 1012.3 hPa ESE 14.8 km/h 20.9 km/h 25% 0.0 mm CLR
14:44 36.7 °C 13.4 °C 1012.3 hPa NE 14.8 km/h 22.2 km/h 25% 0.0 mm CLR
14:49 36.8 °C 12.9 °C 1012.0 hPa NE 13.0 km/h 22.2 km/h 24% 0.0 mm CLR
14:54 36.6 °C 12.8 °C 1012.0 hPa NNE 13.0 km/h 24.1 km/h 24% 0.0 mm CLR
14:59 36.7 °C 13.4 °C 1012.0 hPa NE 15.6 km/h 18.5 km/h 25% 0.0 mm CLR
15:04 36.7 °C 13.4 °C 1012.0 hPa East 15.6 km/h 22.2 km/h 25% 0.0 mm CLR
15:09 36.6 °C 13.4 °C 1012.0 hPa NNE 15.6 km/h 22.2 km/h 25% 0.0 mm CLR
15:14 36.7 °C 13.4 °C 1012.0 hPa NNE 15.6 km/h 22.2 km/h 25% 0.0 mm CLR
15:19 36.7 °C 13.4 °C 1012.0 hPa NNE 15.6 km/h 27.8 km/h 25% 0.0 mm CLR
15:24 36.7 °C 13.4 °C 1012.0 hPa SE 15.6 km/h 22.2 km/h 25% 0.0 mm CLR
15:29 36.6 °C 13.4 °C 1012.0 hPa ENE 16.1 km/h 20.4 km/h 25% 0.0 mm CLR
15:34 36.3 °C 13.1 °C 1012.0 hPa NE 16.1 km/h 24.1 km/h 25% 0.0 mm CLR
15:39 36.4 °C 13.8 °C 1012.0 hPa ENE 16.1 km/h 22.2 km/h 26% 0.0 mm CLR
15:44 36.4 °C 14.4 °C 1012.0 hPa NNE 16.1 km/h 35.2 km/h 27% 0.0 mm CLR
15:49 36.2 °C 14.2 °C 1011.9 hPa NE 16.4 km/h 18.5 km/h 27% 0.0 mm CLR
15:54 36.0 °C 15.2 °C 1011.9 hPa NE 16.4 km/h 35.2 km/h 29% 0.0 mm CLR
15:59 35.9 °C 15.1 °C 1011.9 hPa ENE 19.8 km/h 25.9 km/h 29% 0.0 mm CLR
16:04 35.9 °C 15.1 °C 1011.9 hPa NNE 19.8 km/h 25.9 km/h 29% 0.0 mm CLR
16:09 35.8 °C 15.5 °C 1011.9 hPa NE 19.8 km/h 37.0 km/h 30% 0.0 mm CLR
16:14 35.7 °C 15.4 °C 1011.9 hPa NE 19.8 km/h 25.9 km/h 30% 0.0 mm CLR
16:19 35.7 °C 15.4 °C 1011.7 hPa NE 19.8 km/h 25.9 km/h 30% 0.0 mm CLR
16:24 35.5 °C 15.3 °C 1011.7 hPa NE 19.8 km/h 33.3 km/h 30% 0.0 mm CLR
16:29 35.4 °C 15.2 °C 1011.7 hPa ENE 19.8 km/h 31.5 km/h 30% 0.0 mm CLR
16:34 35.4 °C 15.2 °C 1011.7 hPa NNE 19.8 km/h 25.9 km/h 30% 0.0 mm CLR
16:39 35.3 °C 15.1 °C 1011.7 hPa ENE 19.8 km/h 29.6 km/h 30% 0.0 mm CLR
16:44 35.3 °C 15.1 °C 1011.7 hPa NE 19.8 km/h 27.8 km/h 30% 0.0 mm CLR
16:49 35.4 °C 15.7 °C 1011.8 hPa NNE 19.0 km/h 20.4 km/h 31% 0.0 mm CLR
16:54 35.5 °C 15.3 °C 1011.8 hPa NNE 19.0 km/h 27.0 km/h 30% 0.0 mm CLR
16:59 35.2 °C 15.5 °C 1011.8 hPa ENE 18.3 km/h 27.8 km/h 31% 0.0 mm CLR
17:04 35.1 °C 15.9 °C 1011.7 hPa NNE 18.3 km/h 29.6 km/h 32% 0.0 mm CLR
17:09 35.1 °C 15.9 °C 1011.7 hPa NE 17.2 km/h 22.5 km/h 32% 0.0 mm CLR
17:14 35.0 °C 15.3 °C 1011.7 hPa North 17.2 km/h 24.1 km/h 31% 0.0 mm CLR
17:19 34.7 °C 15.1 °C 1011.6 hPa ENE 17.2 km/h 31.5 km/h 31% 0.0 mm CLR
17:24 34.7 °C 15.1 °C 1011.6 hPa ENE 17.2 km/h 20.4 km/h 31% 0.0 mm CLR
17:29 34.7 °C 15.1 °C 1011.6 hPa ENE 17.2 km/h 18.5 km/h 31% 0.0 mm CLR
17:34 34.6 °C 14.5 °C 1011.7 hPa NE 17.2 km/h 24.1 km/h 30% 0.0 mm CLR
17:39 34.7 °C 14.1 °C 1011.7 hPa NNE 17.2 km/h 22.0 km/h 29% 0.0 mm CLR
17:44 34.7 °C 14.1 °C 1011.7 hPa NNE 17.2 km/h 25.9 km/h 29% 0.0 mm CLR
17:49 34.7 °C 13.5 °C 1011.7 hPa ENE 18.0 km/h 27.8 km/h 28% 0.0 mm CLR
17:54 34.7 °C 13.5 °C 1011.7 hPa ENE 18.0 km/h 24.1 km/h 28% 0.0 mm CLR
17:59 34.7 °C 13.5 °C 1011.7 hPa NE 16.4 km/h 23.7 km/h 28% 0.0 mm CLR
18:04 34.4 °C 13.3 °C 1011.7 hPa ENE 16.4 km/h 29.6 km/h 28% 0.0 mm CLR
18:09 34.2 °C 13.6 °C 1011.7 hPa NNE 18.0 km/h 22.5 km/h 29% 0.0 mm CLR
18:14 33.9 °C 13.4 °C 1011.7 hPa East 18.0 km/h 25.9 km/h 29% 0.0 mm CLR
18:19 34.0 °C 13.4 °C 1011.9 hPa NE 17.2 km/h 24.5 km/h 29% 0.0 mm CLR
18:24 33.9 °C 13.4 °C 1011.9 hPa NE 17.2 km/h 22.2 km/h 29% 0.0 mm CLR
18:29 33.9 °C 12.8 °C 1011.9 hPa ENE 14.0 km/h 16.7 km/h 28% 0.0 mm CLR
18:34 33.9 °C 12.8 °C 1012.0 hPa East 14.0 km/h 24.1 km/h 28% 0.0 mm CLR
18:39 33.8 °C 12.7 °C 1012.0 hPa NE 13.7 km/h 21.7 km/h 28% 0.0 mm CLR
18:44 33.7 °C 12.7 °C 1012.0 hPa ENE 13.7 km/h 18.5 km/h 28% 0.0 mm CLR
18:49 33.6 °C 12.6 °C 1012.1 hPa NE 12.2 km/h 18.5 km/h 28% 0.0 mm CLR
18:54 33.5 °C 12.5 °C 1012.1 hPa East 12.2 km/h 14.8 km/h 28% 0.0 mm CLR
18:59 33.4 °C 12.4 °C 1012.1 hPa NE 12.2 km/h 20.4 km/h 28% 0.0 mm CLR
19:04 33.3 °C 12.8 °C 1012.0 hPa ENE 12.2 km/h 11.1 km/h 29% 0.0 mm CLR
19:09 33.3 °C 12.3 °C 1012.0 hPa NNE 9.5 km/h 13.0 km/h 28% 0.0 mm CLR
19:14 33.2 °C 12.2 °C 1012.0 hPa ENE 9.5 km/h 16.7 km/h 28% 0.0 mm CLR
19:19 33.1 °C 12.2 °C 1011.9 hPa NE 10.3 km/h 19.0 km/h 28% 0.0 mm CLR
19:24 32.8 °C 11.9 °C 1011.9 hPa NNE 10.3 km/h 22.2 km/h 28% 0.0 mm CLR
19:29 32.8 °C 11.9 °C 1011.9 hPa NE 14.0 km/h 18.0 km/h 28% 0.0 mm CLR
19:34 32.7 °C 11.8 °C 1011.9 hPa NE 14.0 km/h 16.7 km/h 28% 0.0 mm CLR
19:39 32.7 °C 11.3 °C 1011.9 hPa NE 11.1 km/h 22.2 km/h 27% 0.0 mm CLR
19:44 32.6 °C 11.7 °C 1011.9 hPa ENE 11.1 km/h 24.1 km/h 28% 0.0 mm CLR
19:49 32.5 °C 11.6 °C 1011.9 hPa NNE 14.0 km/h 18.5 km/h 28% 0.0 mm CLR
19:54 32.5 °C 11.1 °C 1011.9 hPa NE 14.0 km/h 18.5 km/h 27% 0.0 mm CLR
19:59 32.4 °C 11.0 °C 1011.9 hPa NNE 11.1 km/h 22.2 km/h 27% 0.0 mm CLR
20:04 32.3 °C 10.9 °C 1012.0 hPa NE 11.1 km/h 22.2 km/h 27% 0.0 mm CLR
20:09 32.3 °C 10.9 °C 1012.0 hPa ENE 12.2 km/h 16.7 km/h 27% 0.0 mm CLR
20:14 32.2 °C 10.8 °C 1012.0 hPa NE 12.2 km/h 14.8 km/h 27% 0.0 mm CLR
20:19 32.2 °C 10.8 °C 1012.1 hPa North 11.1 km/h 14.8 km/h 27% 0.0 mm CLR
20:24 32.1 °C 10.7 °C 1012.1 hPa NE 11.1 km/h 16.7 km/h 27% 0.0 mm CLR
20:29 31.9 °C 10.6 °C 1012.1 hPa NNE 11.9 km/h 14.8 km/h 27% 0.0 mm CLR
20:34 31.7 °C 10.9 °C 1011.9 hPa NE 11.9 km/h 18.5 km/h 28% 0.0 mm CLR
20:39 31.4 °C 11.2 °C 1011.9 hPa NNE 11.9 km/h 14.8 km/h 29% 0.0 mm CLR
20:44 31.2 °C 11.6 °C 1011.9 hPa NNE 11.9 km/h 16.7 km/h 30% 0.0 mm CLR
20:49 30.9 °C 11.3 °C 1012.0 hPa NE 13.0 km/h 23.7 km/h 30% 0.0 mm CLR
20:54 30.7 °C 11.6 °C 1012.0 hPa NNE 13.0 km/h 20.4 km/h 31% 0.0 mm CLR
20:59 30.6 °C 12.0 °C 1012.0 hPa North 13.0 km/h 14.8 km/h 32% 0.0 mm CLR
21:04 30.4 °C 12.3 °C 1012.2 hPa NNE 13.0 km/h 16.7 km/h 33% 0.0 mm CLR
21:09 30.2 °C 12.2 °C 1012.2 hPa ENE 11.1 km/h 20.4 km/h 33% 0.0 mm CLR
21:14 30.1 °C 12.1 °C 1012.2 hPa NNE 11.1 km/h 24.1 km/h 33% 0.0 mm CLR
21:19 29.8 °C 12.2 °C 1011.8 hPa NE 14.8 km/h 24.1 km/h 34% 0.0 mm CLR
21:24 29.7 °C 12.2 °C 1011.8 hPa NE 14.8 km/h 18.5 km/h 34% 0.0 mm CLR
21:29 29.6 °C 11.6 °C 1011.8 hPa NE 14.8 km/h 14.8 km/h 33% 0.0 mm CLR
21:34 29.5 °C 11.6 °C 1011.8 hPa NE 14.8 km/h 20.4 km/h 33% 0.0 mm CLR
21:39 29.4 °C 11.4 °C 1011.8 hPa NNE 13.7 km/h 14.8 km/h 33% 0.0 mm CLR
21:44 29.4 °C 11.0 °C 1011.8 hPa NE 13.7 km/h 14.8 km/h 32% 0.0 mm CLR
21:49 29.3 °C 10.9 °C 1012.1 hPa NNE 10.3 km/h 11.1 km/h 32% 0.0 mm CLR
21:54 29.3 °C 10.9 °C 1012.1 hPa North 10.3 km/h 9.3 km/h 32% 0.0 mm CLR
21:59 29.2 °C 10.8 °C 1012.1 hPa ENE 8.4 km/h 18.5 km/h 32% 0.0 mm CLR
22:04 29.1 °C 11.2 °C 1012.2 hPa East 8.4 km/h 11.1 km/h 33% 0.0 mm CLR
22:09 29.1 °C 10.7 °C 1012.2 hPa North 10.3 km/h 14.8 km/h 32% 0.0 mm CLR
22:14 28.9 °C 10.6 °C 1012.2 hPa NE 10.3 km/h 13.0 km/h 32% 0.0 mm CLR
22:19 28.9 °C 10.6 °C 1012.2 hPa ENE 8.4 km/h 14.8 km/h 32% 0.0 mm CLR
22:24 28.8 °C 10.4 °C 1012.2 hPa NE 8.4 km/h 13.7 km/h 32% 0.0 mm CLR
22:29 28.8 °C 10.4 °C 1012.2 hPa ENE 9.5 km/h 9.3 km/h 32% 0.0 mm CLR
22:34 28.8 °C 10.4 °C 1012.1 hPa NE 9.5 km/h 11.1 km/h 32% 0.0 mm CLR
22:39 28.8 °C 10.0 °C 1012.1 hPa ENE 8.7 km/h 16.7 km/h 31% 0.0 mm CLR
22:44 28.8 °C 10.0 °C 1012.1 hPa NE 8.7 km/h 13.0 km/h 31% 0.0 mm CLR
22:49 28.7 °C 9.9 °C 1011.9 hPa NNE 9.5 km/h 14.8 km/h 31% 0.0 mm CLR
22:54 28.7 °C 10.4 °C 1011.9 hPa ENE 9.5 km/h 11.1 km/h 32% 0.0 mm CLR
22:59 28.6 °C 10.3 °C 1011.9 hPa North 8.7 km/h 13.0 km/h 32% 0.0 mm CLR
23:04 28.5 °C 9.7 °C 1012.0 hPa ENE 8.7 km/h 13.0 km/h 31% 0.0 mm CLR
23:09 28.4 °C 10.1 °C 1012.0 hPa NE 8.4 km/h 13.0 km/h 32% 0.0 mm CLR
23:14 28.2 °C 10.4 °C 1012.0 hPa North 8.4 km/h 14.8 km/h 33% 0.0 mm CLR
23:19 28.1 °C 11.2 °C 1012.0 hPa NNE 10.0 km/h 16.7 km/h 35% 0.0 mm CLR
23:24 28.1 °C 12.1 °C 1012.0 hPa NNE 10.0 km/h 9.5 km/h 37% 0.0 mm CLR
23:29 28.0 °C 12.3 °C 1012.0 hPa WNW 7.6 km/h 7.4 km/h 38% 0.0 mm CLR
23:34 27.9 °C 12.7 °C 1012.4 hPa NNW 7.6 km/h 8.4 km/h 39% 0.0 mm CLR
23:39 27.8 °C 12.9 °C 1012.4 hPa NW 5.8 km/h 9.3 km/h 40% 0.0 mm CLR
23:44 27.7 °C 13.6 °C 1012.4 hPa NW 5.8 km/h 7.4 km/h 42% 0.0 mm CLR
23:49 27.6 °C 13.9 °C 1012.6 hPa North 6.4 km/h 7.6 km/h 43% 0.0 mm CLR
23:54 27.6 °C 13.9 °C 1012.6 hPa NNE 6.4 km/h 9.5 km/h 43% 0.0 mm CLR
23:59 27.6 °C 13.9 °C 1012.6 hPa NE 4.7 km/h 6.4 km/h 43% 0.0 mm CLR
Murcia-Puente Tocinos, España
Compliments of Weather Underground - 2.75 mb

La estación de MeteoMurcia.com, publica sus datos en los siguientes proyectos:

Weather Underground PWS IMURCIAP2 Meteoclimatic www.awekas.at

W3Counter
Web Analytics